CAPE
1574 2251 3102 2809 2569 2521 2332 2175 2099 2146 2326 2773 3125 3078 2843 2709 2569 2796 2701 2316 1904 1903 1569 1619 1503 1496 1418 1450 1536 1442 1021 944 1088 691 463 952 756 517 636 881 875 483 840
1770 2586 3373 3150 3126 2656 2507 2392 2361 2307 2226 2509 2767 2814 2687 2852 2402 2430 2404 2177 2040 1874 1682 1679 1708 1652 1431 1252 1123 1162 751 1241 1303 1019 857 810 1081 907 652 632 915 536 867
1977 2517 3116 3387 3508 2801 2626 2426 2449 2411 2226 2296 2490 2606 2588 2702 2407 2291 2262 2120 2024 1909 1857 1812 1890 1693 1547 1319 1253 1153 1205 1071 1268 1260 1020 571 581 569 479 586 758 468 456
2102 2608 2669 3131 3570 3116 2728 2533 2526 2548 2472 2451 2446 2358 2422 2480 2352 2334 2416 2379 2197 2105 1929 2012 1791 1795 1587 1634 1526 1563 1252 1179 1332 1112 590 536 521 542 171 149 666 281 259
2087 2529 2732 3709 3570 2811 2745 2856 2690 2629 2582 2536 2534 2367 2237 2311 2417 2521 2529 2358 2264 2362 2151 2080 1812 1658 1708 1709 1578 1629 1545 1397 946 623 508 635 569 528 739 140 859 776 900
2171 2429 3434 3680 3096 2770 2637 2822 2664 2621 2588 2489 2543 2511 2343 2303 2287 2300 2264 2183 2114 2173 2215 2177 1912 1473 1515 1930 1771 1664 1291 1279 937 325 522 881 761 760 482 280 265 456 498
2220 2688 3048 3550 3496 3195 2839 2691 2729 2634 2578 2548 2574 2498 2442 2505 2397 2296 2194 2220 2179 1916 2111 1984 1889 1565 1517 2010 1982 1538 1100 1193 522 368 254 621 674 1304 576 516 461 1048 614
2370 2612 2834 3356 3404 3021 2822 2714 2624 2606 2571 2652 2588 2419 2587 2742 2441 2376 2175 2004 2003 1888 1997 1872 1838 1660 1560 1995 2083 1701 1312 1306 1089 676 310 279 231 1259 766 1175 719 428 426
2370 2556 2686 2755 2609 2849 2805 2751 2712 2749 2657 2501 2365 2367 2442 2423 2336 2403 2245 2019 1914 1875 1594 1901 1869 1528 1881 1722 1928 1477 1104 1040 639 462 406 243 1096 1316 838 978 1000 514 586
2225 2395 2510 2587 2427 2540 2560 3021 2882 2764 2463 2286 2445 2731 2551 2470 2230 2207 2587 2492 1953 1695 1270 1491 1831 1827 1645 2196 1910 1561 1184 749 416 492 498 319 1451 1281 1253 1285 1172 472 485
1950 2143 2309 2296 2360 2370 2429 2428 2882 2520 2352 2120 2337 2557 2514 2172 2226 2353 2412 2206 1947 1852 1717 1597 1619 1788 1789 1778 2107 1977 1452 791 518 439 518 766 1325 1334 1266 1102 1304 929 702
1650 1784 1894 1993 2094 2112 2206 2050 2248 1889 1763 2222 2445 2116 2180 1949 1963 1943 2332 2256 1988 1961 1797 1796 1759 1833 1991 1193 1235 1798 1559 802 502 341 451 981 1305 1388 1907 1685 1416 829 974
1338 1418 1630 1767 1771 1902 2083 1965 2064 1888 1891 2017 1982 2069 1941 1500 1386 1732 1627 1615 1466 2172 1495 1650 1756 1756 1520 1215 965 999 933 821 458 297 442 926 1329 1394 1583 1650 1325 1019 745
1229 1140 1340 1502 1513 1680 1824 1989 1840 1832 1814 1513 1570 1413 1396 1382 1325 1091 1122 1144 929 1134 1301 1234 1447 1394 1329 936 866 692 706 618 528 264 321 774 1488 1541 1628 1580 1407 1406 1154
1265 1169 1338 1375 1409 1553 1691 1783 1687 1783 1575 1186 1211 1340 1460 1307 1064 126 635 765 863 776 889 1004 1051 1121 934 714 548 282 486 488 408 323 409 978 1865 1650 1364 1597 1872 1317 1225
1468 1353 1563 1535 1540 1600 1649 1650 1432 1469 1390 921 637 729 1001 549 206 291 708 655 520 563 523 821 757 688 757 705 441 404 302 219 276 373 422 541 1707 1648 1504 1581 1932 1942 1334
1699 1583 1728 1701 1637 1613 1781 1424 1393 1051 681 479 427 479 546 640 466 561 542 435 210 225 375 583 567 423 404 369 342 292 154 237 264 253 325 410 524 1687 1553 1722 1921 2208 2426
1884 1801 1915 1972 1683 1492 1500 1253 659 601 461 269 391 513 437 266 319 228 627 585 326 425 300 189 114 97 65 17 0 70 112 51 160 107 385 498 459 561 1197 1699 1359 1392 2282
1781 1801 2008 1837 1375 1211 1112 813 462 524 482 668 632 464 372 264 290 145 412 540 380 383 276 242 180 128 77 34 0 0 0 0 41 155 282 444 545 568 522 857 1538 1261 1675
1733 1889 2101 1753 1268 1058 943 421 172 186 454 646 633 547 466 367 658 697 716 571 537 351 301 313 206 138 68 57 31 59 20 25 9 133 252 483 587 607 603 598 593 682 1260
1924 1972 2147 1715 1275 1016 532 128 103 173 312 530 497 426 217 146 161 105 145 148 459 433 316 262 168 187 98 39 13 26 0 6 104 171 211 231 380 576 590 599 613 599 583
2011 2050 1974 1533 1133 686 277 92 34 90 333 496 534 558 513 491 410 405 502 443 105 79 103 60 33 18 57 57 22 53 27 13 39 84 112 163 235 362 372 466 556 612 591
2031 1998 1718 1451 942 520 60 330 201 196 268 340 477 514 336 495 479 410 371 235 107 83 95 76 54 26 12 44 66 40 30 17 21 27 175 282 354 409 474 563 592 628 669
2048 1900 1828 1444 757 193 274 449 393 490 554 628 365 364 271 232 166 134 132 137 71 43 97 113 92 83 71 43 35 61 36 23 1 18 78 76 248 421 481 514 433 433 584
2055 2213 1966 1356 776 290 405 264 290 755 619 438 244 316 311 120 56 74 148 98 80 156 180 182 113 150 207 123 61 17 27 56 76 42 35 21 46 203 338 388 494 649 632
2171 2025 1636 1420 792 841 469 606 1149 839 700 401 295 226 131 41 0 0 69 102 231 298 369 234 181 275 261 75 71 72 38 34 67 106 88 51 10 62 177 194 272 505 479
CIN
-11 -5 0 -2 -4 0 0 -7 -20 -16 -4 0 0 0 -3 -2 -1 0 0 -1 -6 -1 0 0 0 0 0 0 0 0 0 0 0 0 0 0 0 0 0 0 0 -1 0
-32 -2 0 0 0 -2 0 0 0 -5 -10 -2 0 0 -1 0 0 0 0 -2 -3 0 0 -2 0 0 0 0 0 0 0 0 0 0 0 0 0 0 0 0 0 -1 0
-27 -1 0 0 0 0 0 0 0 0 -5 -6 -4 0 0 0 -1 -2 0 0 -2 -4 0 0 0 0 0 0 0 0 0 -1 0 0 0 -3 -2 0 0 0 0 0 0
-26 -1 -2 -2 0 0 0 -1 0 0 0 0 0 -3 -2 0 0 0 0 0 0 -1 -2 -1 -3 0 -1 0 0 0 0 0 0 0 -5 -2 0 -1 -11 -1 0 0 0
-21 -5 -3 0 0 0 0 0 0 0 0 0 0 0 0 0 0 0 0 0 0 0 0 0 -1 -4 0 0 0 0 0 -1 0 -8 -7 -2 -5 -2 0 -18 0 0 0
-13 -7 0 0 0 0 0 0 0 0 0 0 0 0 0 0 0 0 0 0 0 0 0 0 -1 -8 -1 0 0 -1 -3 -9 -2 -34 -4 -2 -1 0 -7 -16 -5 0 0
-7 0 0 0 0 0 0 0 0 0 0 0 0 0 0 0 0 0 0 0 0 -1 0 -1 0 -3 -2 0 -1 -1 -4 -2 -20 -55 -45 -6 -5 0 -1 -5 -2 0 0
-19 -1 0 0 0 0 0 0 0 0 0 0 0 0 0 0 0 0 0 0 0 -1 -2 -4 0 -8 -3 0 -1 -1 -3 -3 -6 -23 -55 -37 -35 0 0 0 0 -1 0
-13 -7 -2 0 -5 0 0 0 0 0 0 0 0 0 0 0 0 0 0 -1 -2 -2 -8 -5 -2 -12 -2 -1 0 -2 -6 -5 -11 -23 -13 -72 -7 0 0 0 0 0 0
-18 -13 -7 -2 -17 -9 -1 0 0 0 0 0 0 0 0 0 -1 0 0 -1 0 -1 -6 -7 -3 -3 -16 -1 0 -3 -8 -6 -24 -36 -20 -65 -7 0 0 0 0 -2 0
-29 -21 -13 -15 -11 -16 -4 -1 -1 0 0 0 0 0 0 -3 -1 -1 -3 -4 -3 -1 -1 0 -4 -9 -8 -12 -2 -2 -5 -37 -47 -42 -49 -40 -14 -2 0 0 0 0 0
-58 -55 -40 -31 -26 -24 -17 -20 -4 -8 -11 0 -1 0 -2 -10 -15 -19 -10 -4 -3 -2 0 0 -2 -2 -1 -24 -15 -4 -7 -35 -45 -39 -36 -30 -11 -2 0 0 0 0 0
-132 -97 -74 -62 -63 -47 -26 -28 -18 -28 -19 -16 -20 -7 -7 -31 -31 -29 -42 -17 -16 -6 -13 -9 -1 -1 -10 -23 -34 -29 -24 -34 -65 -68 -80 -40 -17 -3 -1 0 0 0 0
-133 -152 -112 -89 -91 -62 -46 -41 -46 -31 -24 -38 -37 -48 -64 -50 -37 -37 -50 -44 -55 -62 -39 -41 -20 -18 -15 -41 -40 -42 -43 -37 -44 -78 -64 -44 -22 -7 -3 -2 0 0 0
-41 -167 -135 -113 -110 -69 -46 -55 -60 -55 -49 -64 -62 -37 -49 -47 -32 -205 -58 -71 -60 -69 -68 -46 -50 -35 -37 -42 -49 -62 -56 -52 -57 -72 -79 -37 -11 -11 -9 -4 0 0 0
-74 -154 -119 -115 -98 -75 -55 -54 -75 -61 -51 -55 -89 -79 -47 -59 -62 -108 -48 -44 -64 -73 -80 -54 -32 -39 -36 -23 -28 -41 -55 -62 -40 -42 -63 -43 -16 -17 -12 -5 -1 0 0
-101 -133 -109 -107 -79 -70 -48 -43 -41 -32 -25 -50 -83 -64 -49 -44 -55 -72 -53 -56 -83 -71 -104 -42 -31 -31 -26 -24 -23 -26 -60 -58 -42 -58 -88 -50 -81 -20 -18 -10 -3 0 0
-113 -100 -78 -96 -56 -39 -25 -37 -80 -58 -39 -45 -52 -58 -69 -70 -63 -184 -68 -42 -29 -22 -24 -31 -27 -32 -50 -50 0 -45 -48 -70 -47 -60 -103 -61 -102 -58 -33 -16 -26 -16 -1
-112 -134 -97 -68 -65 -109 -41 -33 -101 -112 -43 -57 -41 -45 -45 -41 -54 -140 -52 -56 -32 -24 -31 -35 -29 -49 -62 -63 0 0 0 0 -256 -127 -111 -96 -63 -87 -59 -55 -23 -23 -9
-138 -127 -84 -37 -33 -107 -48 -105 -121 -106 -26 -61 -43 -46 -43 -45 -63 -58 -40 -5 -18 -30 -31 -19 -22 -29 -53 -27 -36 -63 -75 -79 -203 -139 -103 -81 -58 -45 -70 -61 -52 -41 -19
-145 -109 -58 -36 -58 -61 -58 -146 -36 -46 -37 -43 -41 -36 -36 -26 -23 -17 -45 -10 -15 -9 -10 -6 -11 -15 -59 -35 -38 -48 0 -103 -66 -65 -82 -66 -104 -88 -45 -63 -48 -43 -35
-120 -73 -56 -39 -70 -84 -64 -28 -32 -51 -38 -83 -78 -57 -26 -21 -14 -14 -7 -18 -40 -44 -29 -17 -19 -32 -45 -20 -31 -32 -29 -51 -52 -52 -153 -126 -78 -155 -113 -78 -66 -51 -35
-98 -65 -32 -30 -61 -108 -177 -140 -127 -121 -94 -38 -22 -21 -32 -28 -20 -18 -13 -12 -27 -40 -16 -7 -5 -23 -17 -24 -23 -12 -1 -1 -42 -94 -151 -146 -134 -117 -107 -81 -42 -45 -40
-74 -53 -63 -85 -138 -138 -213 -102 -77 -27 -27 -14 -30 -23 -26 -17 -21 -60 -66 -60 -42 -49 -34 -14 -5 -10 -30 -11 -11 -17 -16 -13 0 -48 -54 -131 -122 -103 -93 -45 -36 -50 -40
-80 -39 -55 -88 -117 -262 -186 -137 -109 -17 -9 -16 -35 -21 -14 -21 -36 -84 -44 -57 -46 -40 -11 -4 -3 0 0 -12 -5 -7 -20 -33 -49 -41 -70 -68 -45 -54 -50 -64 -59 -30 -51
-77 -81 -106 -105 -206 -177 -167 -119 -14 -20 -30 -21 -33 -27 -35 -40 0 0 -51 -48 -22 -18 -6 -5 -7 0 -1 -13 -11 -5 -12 -10 -16 -21 -23 -28 -123 -75 -41 -38 -65 -66 -50
Wind_Speed
13 13 15 13 14 13 13 13 13 14 15 14 12 11 11 13 14 14 14 12 12 10 8 6 7 3 4 7 10 11 10 9 10 11 12 13 11 10 9 9 9 10 11
15 12 14 15 16 14 14 15 13 13 13 14 15 16 14 14 14 12 10 9 10 10 9 6 7 5 4 6 6 9 12 12 11 11 10 12 13 12 12 10 11 11 12
16 13 13 18 17 16 13 12 12 12 13 14 14 15 14 13 12 12 11 9 7 8 7 7 6 7 6 5 8 7 9 10 10 9 8 10 11 13 13 12 13 12 11
16 13 13 17 16 16 15 12 13 12 12 11 10 11 10 10 9 7 8 7 8 12 5 7 6 6 8 5 7 8 7 9 9 8 8 9 13 14 16 15 15 14 13
12 11 14 18 17 17 16 14 12 13 13 12 11 11 10 11 10 8 8 9 7 9 10 8 11 2 6 5 7 9 6 6 8 3 4 5 8 15 17 17 12 13 13
12 10 16 18 18 16 16 16 15 15 14 14 14 14 13 12 12 11 10 8 8 8 9 8 9 9 8 6 3 6 7 5 10 2 2 4 5 14 18 19 17 17 14
15 14 14 18 18 18 18 18 19 18 16 14 14 13 13 13 14 14 13 11 10 11 9 9 10 13 18 8 3 6 5 7 7 4 2 2 4 13 18 19 18 15 15
19 16 15 18 18 20 20 20 19 20 18 15 14 14 12 11 10 11 11 11 13 13 12 11 8 11 17 13 9 6 6 6 5 5 6 6 7 10 17 18 18 17 16
19 19 17 16 18 19 18 19 19 20 20 18 15 14 13 11 10 9 9 11 10 11 10 11 8 9 11 9 8 7 5 5 8 5 6 7 11 14 15 17 19 18 18
24 21 18 16 14 13 11 17 16 16 17 18 16 15 14 14 11 9 8 8 10 9 8 9 7 9 7 9 9 7 10 8 11 9 9 6 13 15 13 16 18 18 18
26 23 21 17 15 14 12 13 13 14 13 14 14 15 14 11 10 8 8 5 8 9 9 10 11 6 9 8 7 6 11 14 11 14 14 10 13 15 14 14 15 18 17
30 27 25 21 19 17 14 12 12 8 9 7 10 11 15 14 11 12 11 9 6 9 8 9 11 9 12 15 12 10 16 15 14 15 16 11 14 14 15 14 14 16 16
30 25 25 24 21 20 17 11 10 10 10 11 9 11 10 13 13 11 12 13 12 8 11 10 12 15 14 15 13 17 16 16 18 16 15 12 13 14 16 15 14 14 15
34 28 26 24 23 19 18 15 12 15 16 9 9 11 12 15 13 11 12 14 15 14 13 13 13 14 13 14 14 14 15 18 19 20 18 10 15 17 13 14 12 12 14
34 32 28 24 21 19 18 15 13 16 15 15 6 10 12 10 9 6 2 6 12 11 14 14 16 15 14 12 13 14 15 18 19 22 19 9 12 15 14 14 14 13 14
37 32 30 29 29 25 18 14 14 11 14 10 4 6 5 6 6 3 4 6 8 8 11 17 19 18 16 16 15 12 13 17 20 19 19 16 9 11 12 10 14 14 13
39 36 32 34 27 31 20 13 14 10 11 8 5 7 5 7 7 5 6 6 8 9 11 13 16 20 19 17 14 16 16 19 17 17 18 16 20 9 11 10 13 13 14
34 39 35 29 17 17 24 23 18 7 5 13 8 9 8 7 5 5 8 6 9 13 10 14 15 nan nan nan nan nan 19 nan 19 22 19 17 17 25 17 12 15 15 13
35 36 34 22 29 35 25 19 21 6 10 15 9 10 10 10 8 12 8 9 15 13 14 15 18 18 nan nan nan nan nan nan nan 13 13 17 14 17 23 20 16 16 15
31 30 28 23 25 26 25 21 16 11 12 12 14 13 10 10 10 11 10 10 15 16 16 18 19 20 nan nan nan nan nan nan nan 19 15 20 19 19 17 18 18 17 7
31 28 24 26 25 24 20 23 10 8 9 12 10 7 5 5 6 10 11 10 14 14 16 17 18 18 nan nan nan nan nan nan 16 15 20 20 21 22 20 20 18 18 16
29 26 25 24 26 26 22 nan nan nan 14 13 13 12 6 4 7 9 7 8 9 nan 12 nan nan nan nan nan nan nan nan nan nan nan 21 22 19 25 21 20 20 17 18
29 27 26 24 25 24 nan 24 2 19 23 17 10 9 10 10 11 9 7 8 10 nan nan nan nan nan nan nan nan nan nan nan nan nan 25 23 20 21 23 22 20 18 17
31 29 24 24 25 20 20 20 20 8 10 4 4 9 12 12 10 9 5 5 nan nan nan 14 nan nan nan nan nan nan nan nan nan nan nan nan 23 19 20 24 22 19 20
32 29 27 24 23 21 15 12 11 7 5 7 10 14 13 11 nan nan 5 nan nan 10 11 11 13 14 15 17 nan nan nan nan nan nan nan nan nan 25 25 28 23 22 23
28 27 26 27 20 21 17 13 11 10 7 7 10 12 11 nan nan nan nan 6 5 9 8 9 11 14 12 nan nan nan nan nan nan 19 nan nan nan nan 23 22 26 26 26
Wind_Direction
354 344 349 335 317 308 306 311 310 305 303 296 298 302 301 298 303 297 294 302 302 306 298 294 305 319 8 33 24 2 8 20 2 17 9 13 19 9 12 357 8 22 351
332 332 339 332 323 319 318 319 318 308 303 304 305 302 301 297 297 294 288 292 302 300 298 288 287 297 327 359 19 10 5 11 20 19 23 13 16 11 11 13 17 21 360
328 326 342 331 334 330 325 322 318 314 309 306 303 303 303 308 308 298 285 287 287 292 298 303 304 292 308 346 346 6 1 2 10 14 25 76 71 7 10 18 22 10 6
322 332 346 339 337 336 328 328 320 321 316 314 307 301 301 311 316 300 289 288 269 270 288 282 283 312 307 318 331 328 353 352 348 0 85 73 40 9 7 17 14 21 14
323 342 350 343 341 337 326 328 324 317 313 308 300 297 301 305 312 312 298 281 277 257 270 271 289 322 294 300 311 321 343 336 321 322 101 68 48 15 1 10 16 10 17
346 353 350 343 342 339 330 326 323 318 311 307 299 296 295 295 296 299 293 292 280 263 260 252 269 289 297 297 320 309 325 335 306 294 135 20 33 6 357 357 10 16 12
355 360 352 343 344 341 339 332 329 324 319 320 317 313 309 302 288 279 276 277 275 272 268 274 251 282 298 302 240 300 314 306 265 289 328 344 37 358 353 353 354 357 5
358 360 353 343 343 343 342 338 334 327 326 327 323 318 315 311 310 304 292 274 270 268 267 267 251 279 286 268 268 267 312 305 271 281 315 313 354 6 351 350 343 353 1
4 6 359 347 346 341 338 335 334 330 327 327 326 320 313 310 317 312 298 291 277 270 255 263 261 249 278 300 276 259 263 251 253 243 315 302 337 353 354 345 344 353 354
16 14 8 357 338 322 324 327 326 325 326 327 319 318 315 318 316 312 305 287 280 272 250 246 270 238 256 266 277 278 281 276 256 241 261 278 333 341 348 344 344 351 355
17 13 11 358 346 321 311 317 319 321 325 326 320 309 297 269 281 293 295 301 279 268 268 251 234 236 200 272 261 267 274 260 250 259 267 298 328 334 338 342 348 345 349
11 13 4 4 356 339 319 302 296 284 279 284 283 287 281 279 276 285 296 306 291 266 254 256 255 240 232 239 233 244 240 247 247 251 258 291 310 324 330 329 343 348 347
6 5 7 3 4 359 345 296 292 297 299 293 286 270 278 279 259 242 246 261 255 262 247 251 256 249 237 239 238 237 239 246 245 238 260 279 301 314 318 318 328 348 351
6 6 360 6 3 2 3 352 319 301 298 309 272 268 269 269 275 262 254 251 254 246 247 248 246 253 257 261 253 232 234 244 255 251 234 247 279 303 320 296 315 336 345
5 9 0 355 352 355 358 356 338 315 320 333 283 243 278 274 276 264 258 250 243 251 255 252 251 252 258 256 255 255 251 255 256 254 259 239 267 292 301 317 327 335 336
-0 5 354 345 347 345 342 355 345 337 309 318 215 239 244 250 255 246 224 213 217 256 278 262 255 251 249 255 252 247 247 262 257 261 262 248 244 277 287 298 310 327 324
0 358 357 349 346 349 321 335 341 331 313 276 270 227 226 235 212 228 230 234 262 255 271 268 262 254 247 253 267 258 248 254 262 250 258 269 240 254 280 286 291 304 315
351 353 358 345 345 308 1 321 334 311 310 240 225 238 240 237 244 252 245 246 251 261 266 275 276 nan nan nan nan nan 269 nan 242 235 243 255 252 244 247 257 279 285 299
349 348 354 339 341 337 346 335 331 265 269 224 229 235 234 236 235 256 271 275 286 282 274 270 268 269 nan nan nan nan nan nan nan 227 245 255 250 251 245 249 269 281 294
337 340 339 333 330 332 330 323 322 266 266 191 222 228 243 249 254 259 273 269 280 278 272 265 267 261 nan nan nan nan nan nan nan 241 234 239 240 244 247 256 254 258 301
327 329 332 336 334 336 327 323 290 223 199 197 201 189 186 232 272 291 285 286 285 287 285 287 276 273 nan nan nan nan nan nan 270 256 237 242 252 253 249 259 255 255 247
321 326 330 340 331 343 341 nan nan nan 174 200 193 203 211 260 293 302 289 276 291 nan 295 nan nan nan nan nan nan nan nan nan nan nan 248 251 257 252 243 253 259 251 251
324 327 339 344 341 346 nan 357 148 182 165 162 185 225 243 276 298 304 290 273 278 nan nan nan nan nan nan nan nan nan nan nan nan nan 226 237 241 246 241 249 250 253 260
321 331 341 348 339 343 347 355 10 38 95 108 224 275 266 266 286 279 275 286 nan nan nan 299 nan nan nan nan nan nan nan nan nan nan nan nan 237 234 237 241 243 254 262
318 330 347 349 335 331 330 327 353 2 2 334 311 300 291 295 nan nan 281 nan nan 283 294 306 303 300 290 287 nan nan nan nan nan nan nan nan nan 239 238 236 244 253 269
317 330 337 345 336 320 315 314 300 312 332 325 321 313 304 nan nan nan nan 254 262 290 304 311 311 301 300 nan nan nan nan nan nan 272 nan nan nan nan 236 238 241 248 255